DLH6CR EDDF-EDXW

Flight info

Callsign DLH6CR
Flight time 0h 56m
Altitude 39000
Route MARUN9S MARUN Y150 TOLGI/N0434F380 DCT ELSOB Y348 OMWEG DCT BADOS DCT OLDIP
Aircraft A319/M-SDE2E3FGIJ1LORWXYZ/HB1

Departure

Time 2026-05-04 06:48
Airport Frankfurt Main Airport (EDDF)

Arrival

Time 2026-05-04 07:45
Airport Westerland Sylt Airport (EDXW)
Time Latitude Longitude Altitude Speed Heading
2026-05-04 06:21 50.03939 8.55121 345 ft 0 kts 160°
2026-05-04 06:41 50.03931 8.55126 346 ft 3 kts 160°
2026-05-04 06:41 50.03890 8.55152 346 ft 8 kts 147°
2026-05-04 06:42 50.03881 8.55246 346 ft 10 kts 72°
2026-05-04 06:42 50.03911 8.55368 347 ft 14 kts 68°
2026-05-04 06:42 50.03950 8.55536 348 ft 18 kts 70°
2026-05-04 06:44 50.04297 8.56991 350 ft 21 kts 70°
2026-05-04 06:44 50.04348 8.57205 350 ft 21 kts 70°
2026-05-04 06:44 50.04399 8.57422 350 ft 21 kts 69°
2026-05-04 06:45 50.04427 8.57594 350 ft 12 kts 104°
2026-05-04 06:45 50.04367 8.57670 350 ft 12 kts 156°
2026-05-04 06:45 50.04285 8.57696 350 ft 12 kts 211°
2026-05-04 06:45 50.04253 8.57612 350 ft 0 kts 250°
2026-05-04 06:46 50.04253 8.57610 350 ft 0 kts 249°
2026-05-04 06:46 50.04252 8.57608 350 ft 0 kts 249°
2026-05-04 06:48 50.01499 8.49446 3300 ft 187 kts 199°
2026-05-04 06:48 50.00182 8.48873 3835 ft 205 kts 197°
2026-05-04 06:49 49.98772 8.48270 4590 ft 215 kts 198°
2026-05-04 06:50 49.91095 8.38655 10440 ft 259 kts 285°
2026-05-04 06:51 49.92054 8.36291 11292 ft 269 kts 315°
2026-05-04 06:51 49.93680 8.34723 11946 ft 287 kts 334°
2026-05-04 06:51 49.95613 8.33552 12486 ft 306 kts 336°
2026-05-04 06:51 49.97634 8.32329 12981 ft 323 kts 335°
2026-05-04 06:52 49.99748 8.31000 13674 ft 332 kts 335°
2026-05-04 06:52 50.01882 8.29622 14475 ft 337 kts 334°
2026-05-04 06:52 50.04125 8.28536 15223 ft 346 kts 350°
2026-05-04 06:52 50.06553 8.28641 15970 ft 354 kts 10°
2026-05-04 06:53 50.08919 8.29739 16704 ft 360 kts 18°
2026-05-04 06:53 50.11282 8.31025 17407 ft 365 kts 18°
2026-05-04 06:53 50.13676 8.32340 18082 ft 370 kts 18°
2026-05-04 06:53 50.16101 8.33653 18808 ft 373 kts 18°
2026-05-04 06:54 50.18549 8.34963 19518 ft 376 kts 17°
2026-05-04 06:54 50.21022 8.36274 20189 ft 380 kts 17°
2026-05-04 06:54 50.23532 8.37596 20838 ft 384 kts 17°
2026-05-04 06:54 50.26060 8.38927 21489 ft 388 kts 16°
2026-05-04 06:55 50.28653 8.40293 22116 ft 392 kts 16°
2026-05-04 06:55 50.31225 8.41669 22731 ft 396 kts 16°
2026-05-04 06:55 50.33816 8.43083 23340 ft 400 kts 16°
2026-05-04 06:55 50.36441 8.44520 23951 ft 403 kts 16°
2026-05-04 06:56 50.39114 8.45980 24551 ft 407 kts 16°
2026-05-04 06:57 50.58411 8.55784 28352 ft 430 kts 13°
2026-05-04 06:58 50.61267 8.57150 28838 ft 433 kts 13°
2026-05-04 06:58 50.64168 8.58541 29321 ft 436 kts 13°
2026-05-04 06:58 50.67059 8.59933 29771 ft 439 kts 13°
2026-05-04 06:58 50.69991 8.61346 30211 ft 442 kts 13°
2026-05-04 06:59 50.72942 8.62771 30682 ft 444 kts 13°
2026-05-04 06:59 50.75861 8.64344 31095 ft 449 kts 18°
2026-05-04 06:59 50.78711 8.66431 31476 ft 454 kts 26°
2026-05-04 06:59 50.81405 8.69034 31832 ft 460 kts 33°
2026-05-04 07:01 50.95869 8.95917 34992 ft 459 kts 53°
2026-05-04 07:01 50.97777 8.99929 35348 ft 458 kts 53°
2026-05-04 07:02 50.99670 9.03913 35696 ft 457 kts 53°
2026-05-04 07:02 51.01586 9.07951 36030 ft 456 kts 53°
2026-05-04 07:02 51.03466 9.11918 36338 ft 455 kts 53°
2026-05-04 07:02 51.05375 9.15958 36622 ft 455 kts 53°
2026-05-04 07:03 51.07338 9.19868 36910 ft 455 kts 47°
2026-05-04 07:03 51.09572 9.23342 37253 ft 453 kts 38°
2026-05-04 07:03 51.12118 9.26351 37543 ft 451 kts 30°
2026-05-04 07:03 51.14867 9.28753 37749 ft 450 kts 21°
2026-05-04 07:04 51.17741 9.30513 37910 ft 448 kts 13°
2026-05-04 07:04 51.20744 9.31715 38086 ft 447 kts
2026-05-04 07:04 51.23811 9.32707 38294 ft 447 kts
2026-05-04 07:04 51.26841 9.33672 38478 ft 448 kts
2026-05-04 07:05 51.29906 9.34684 38648 ft 449 kts
2026-05-04 07:05 51.32925 9.35719 38825 ft 450 kts
2026-05-04 07:05 51.36010 9.36792 38969 ft 451 kts
2026-05-04 07:05 51.39066 9.37860 38970 ft 452 kts
2026-05-04 07:06 51.48230 9.41070 38971 ft 452 kts
2026-05-04 07:07 51.54359 9.43220 38959 ft 452 kts
2026-05-04 07:09 51.78873 9.51861 38961 ft 452 kts
2026-05-04 07:09 51.85070 9.53266 38958 ft 448 kts 359°
2026-05-04 07:10 51.91250 9.53602 38965 ft 446 kts 356°
2026-05-04 07:12 52.15930 9.54149 38948 ft 446 kts 356°
2026-05-04 07:12 52.22094 9.54299 38954 ft 445 kts 356°
2026-05-04 07:13 52.28282 9.54452 38951 ft 446 kts 356°
2026-05-04 07:13 52.34488 9.54608 38960 ft 445 kts 356°
2026-05-04 07:14 52.49891 9.54995 38947 ft 444 kts 355°
2026-05-04 07:15 52.56064 9.55151 38951 ft 443 kts 356°
2026-05-04 07:15 52.62202 9.55305 38963 ft 443 kts 355°
2026-05-04 07:16 52.68328 9.55460 38949 ft 443 kts 355°
2026-05-04 07:16 52.74501 9.55618 38938 ft 443 kts 355°
2026-05-04 07:17 52.80614 9.55774 38935 ft 442 kts 355°
2026-05-04 07:17 52.86747 9.55930 38944 ft 441 kts 355°
2026-05-04 07:18 52.92865 9.56088 38791 ft 439 kts 355°
2026-05-04 07:18 52.95928 9.56166 38017 ft 446 kts 355°
2026-05-04 07:18 52.99041 9.56238 37074 ft 456 kts 355°
2026-05-04 07:19 53.02211 9.56316 36303 ft 462 kts 355°
2026-05-04 07:19 53.05444 9.56400 35689 ft 465 kts 355°
2026-05-04 07:19 53.08664 9.56486 35067 ft 468 kts 355°
2026-05-04 07:19 53.11914 9.56573 34364 ft 471 kts 355°
2026-05-04 07:20 53.15157 9.56663 33639 ft 472 kts 355°
2026-05-04 07:20 53.18450 9.56753 33008 ft 470 kts 354°
2026-05-04 07:20 53.21657 9.56843 32404 ft 467 kts 354°
2026-05-04 07:20 53.24903 9.56931 31786 ft 464 kts 354°
2026-05-04 07:22 53.46481 9.57483 28012 ft 428 kts 353°
2026-05-04 07:22 53.49426 9.57561 27538 ft 422 kts 353°
2026-05-04 07:23 53.52313 9.57639 27104 ft 416 kts 353°
2026-05-04 07:23 53.55192 9.57715 26658 ft 411 kts 353°
2026-05-04 07:23 53.58044 9.57787 26198 ft 406 kts 353°
2026-05-04 07:23 53.60837 9.57858 25752 ft 402 kts 353°
2026-05-04 07:24 53.63575 9.57892 25323 ft 396 kts 351°
2026-05-04 07:24 53.66306 9.57665 24892 ft 389 kts 347°
2026-05-04 07:24 53.68970 9.57158 24458 ft 383 kts 345°
2026-05-04 07:24 53.71578 9.56555 24021 ft 380 kts 344°
2026-05-04 07:25 53.74189 9.55934 23603 ft 377 kts 344°
2026-05-04 07:26 53.91989 9.51744 20650 ft 363 kts 345°
2026-05-04 07:27 53.94477 9.51158 20235 ft 361 kts 345°
2026-05-04 07:27 53.96932 9.50580 19824 ft 359 kts 346°
2026-05-04 07:27 53.99374 9.49845 19405 ft 353 kts 339°
2026-05-04 07:27 54.01651 9.48500 18996 ft 345 kts 329°
2026-05-04 07:28 54.03772 9.46615 18580 ft 339 kts 324°
2026-05-04 07:28 54.05788 9.44629 18183 ft 337 kts 323°
2026-05-04 07:28 54.07796 9.42622 17774 ft 336 kts 323°
2026-05-04 07:28 54.09813 9.40608 17367 ft 334 kts 323°
2026-05-04 07:29 54.11811 9.38621 16954 ft 333 kts 324°
2026-05-04 07:29 54.13795 9.36652 16543 ft 331 kts 324°
2026-05-04 07:29 54.15774 9.34692 16125 ft 330 kts 324°
2026-05-04 07:29 54.17749 9.32735 15711 ft 328 kts 324°
2026-05-04 07:30 54.19691 9.30809 15294 ft 327 kts 324°
2026-05-04 07:30 54.21669 9.28845 14882 ft 325 kts 324°
2026-05-04 07:30 54.23599 9.26930 14471 ft 323 kts 324°
2026-05-04 07:30 54.25526 9.25015 14061 ft 322 kts 324°
2026-05-04 07:31 54.27441 9.23109 13652 ft 320 kts 324°
2026-05-04 07:31 54.29371 9.21190 13243 ft 317 kts 324°
2026-05-04 07:33 54.41270 9.06223 10416 ft 295 kts 311°
2026-05-04 07:33 54.42708 9.03718 10070 ft 289 kts 311°
2026-05-04 07:33 54.44078 9.01336 9955 ft 277 kts 311°
2026-05-04 07:33 54.45421 8.98998 9658 ft 272 kts 311°
2026-05-04 07:34 54.46742 8.96696 9273 ft 270 kts 311°
2026-05-04 07:34 54.48054 8.94405 8920 ft 268 kts 311°
2026-05-04 07:34 54.49349 8.92143 8564 ft 266 kts 311°
2026-05-04 07:34 54.50635 8.89895 8211 ft 264 kts 312°
2026-05-04 07:35 54.51903 8.87681 7865 ft 262 kts 312°
2026-05-04 07:35 54.53186 8.85435 7513 ft 260 kts 312°
2026-05-04 07:35 54.54431 8.83259 7171 ft 258 kts 313°
2026-05-04 07:35 54.55682 8.81067 6831 ft 256 kts 313°
2026-05-04 07:36 54.56925 8.78887 6487 ft 254 kts 313°
2026-05-04 07:36 54.58161 8.76720 6149 ft 253 kts 313°
2026-05-04 07:38 54.67379 8.63551 3856 ft 242 kts 323°
2026-05-04 07:38 54.68740 8.61889 3536 ft 240 kts 323°
2026-05-04 07:38 54.70104 8.60237 3216 ft 239 kts 324°
2026-05-04 07:38 54.71482 8.58627 2995 ft 243 kts 324°
2026-05-04 07:39 54.72860 8.56987 2974 ft 232 kts 324°
2026-05-04 07:39 54.74128 8.55439 2971 ft 217 kts 323°
2026-05-04 07:39 54.75314 8.53967 2969 ft 202 kts 323°
2026-05-04 07:39 54.76414 8.52592 2964 ft 189 kts 323°
2026-05-04 07:40 54.77444 8.51304 2960 ft 176 kts 323°
2026-05-04 07:40 54.78418 8.50085 2920 ft 172 kts 323°
2026-05-04 07:40 54.79379 8.48884 2717 ft 172 kts 323°
2026-05-04 07:40 54.80341 8.47683 2484 ft 171 kts 323°
2026-05-04 07:41 54.81314 8.46472 2252 ft 168 kts 323°
2026-05-04 07:41 54.82211 8.45358 2079 ft 151 kts 324°
2026-05-04 07:41 54.83023 8.44349 1865 ft 140 kts 324°
2026-05-04 07:41 54.83785 8.43401 1646 ft 130 kts 324°
2026-05-04 07:42 54.84515 8.42493 1471 ft 125 kts 324°
2026-05-04 07:42 54.85201 8.41633 1281 ft 118 kts 324°
2026-05-04 07:42 54.85859 8.40813 1111 ft 117 kts 324°
2026-05-04 07:42 54.86528 8.39982 971 ft 119 kts 325°
2026-05-04 07:43 54.87197 8.39173 802 ft 115 kts 325°
2026-05-04 07:43 54.87840 8.38372 653 ft 115 kts 324°
2026-05-04 07:43 54.88496 8.37558 513 ft 115 kts 325°
2026-05-04 07:43 54.89145 8.36763 371 ft 114 kts 325°
2026-05-04 07:44 54.89790 8.35959 211 ft 114 kts 324°
2026-05-04 07:44 54.90423 8.35166 64 ft 111 kts 325°
2026-05-04 07:44 54.90943 8.34528 43 ft 70 kts 324°
2026-05-04 07:44 54.91297 8.34084 42 ft 56 kts 325°
2026-05-04 07:45 54.91582 8.33726 42 ft 46 kts 324°
2026-05-04 07:45 54.91825 8.33424 42 ft 32 kts 325°
2026-05-04 07:45 54.91889 8.33268 42 ft 13 kts 240°
2026-05-04 07:45 54.91803 8.33187 42 ft 15 kts 198°
2026-05-04 07:46 54.91695 8.33174 42 ft 16 kts 176°
2026-05-04 07:46 54.91575 8.33178 41 ft 18 kts 180°
2026-05-04 07:46 54.91443 8.33178 40 ft 19 kts 179°
2026-05-04 07:46 54.91356 8.33179 39 ft 0 kts 179°
2026-05-04 07:47 54.91354 8.33177 39 ft 0 kts 212°
2026-05-04 07:47 54.91352 8.33161 39 ft 2 kts 269°
2026-05-04 07:47 54.91352 8.33126 39 ft 0 kts 269°
2026-05-04 07:49 54.91352 8.33122 39 ft 0 kts 269°